Regional Weather Roundup
Issued by NWS

Home | Current Version | Previous Version | Text Only | Print | Product List | Glossary Off
Versions: 1 2 3 4 5 6 7 8 9 10 11 12 13 14 15 16 17 18 19 20 21 22 23 24 25 26 27 28 29 30 31 32 33 34 35 36 37 38 39 40 41 42 43 44 45 46 47 48 49

000
ASUS45 KBOU 211507
RWRCO

WEATHER ROUNDUP FOR COLORADO
NATIONAL WEATHER SERVICE DENVER/BOULDER CO
900 AM MDT SUN SEP 21 2014

NOTE: "FAIR" INDICATES FEW OR NO CLOUDS BELOW 12000 FEET WITH NO
SIGNIFICANT WEATHER AND/OR OBSTRUCTIONS TO VISIBILITY.

COZ001>005-013-030-031-211600-
...NORTHWEST COLORADO...

CITY           SKY/WX    TMP DP  RH WIND       PRES   REMARKS
CRAIG          PTSUNNY   49  39  68 CALM      30.35R
HAYDEN         PTSUNNY   55  37  50 SW5       30.35R
MEEKER         NOT AVBL
MOUNT WERNER   NOT AVBL
STEAMBOAT SPGS MOSUNNY   51  42  70 CALM      30.37R
WALDEN         PTSUNNY   45  37  76 CALM      30.46R
$$

COZ006>008-011-211600-
...WEST CENTRAL VALLEYS...

CITY           SKY/WX    TMP DP  RH WIND       PRES   REMARKS
GRAND JUNCTION LGT RAIN  59  57  93 SE7       30.29R
MONTROSE       CLOUDY    60  56  86 CALM      30.38F
EAGLE          PTSUNNY   54  45  71 CALM      30.41R
RIFLE          CLOUDY    59  47  64 SW3       30.33R
DELTA          RAIN      62  58  88 NE16      30.34F
NUCLA          CLOUDY    63  48  59 SE10G20   30.35R
$$

COZ017>023-064>068-211600-
...SOUTHWEST COLORADO...

CITY           SKY/WX    TMP DP  RH WIND       PRES   REMARKS
DURANGO        MOSUNNY   60  53  77 N3        30.39R
CORTEZ         MOSUNNY   68  56  65 E8        30.31R
PAGOSA SPRINGS MOSUNNY   59  51  73 CALM      30.46S
TELLURIDE      NOT AVBL
WOLF CREEK PAS CLOUDY    41  41 100 CALM      30.72R
$$

COZ009-010-012-014-032>034-037-058>063-211600-
...CENTRAL COLORADO...

CITY           SKY/WX    TMP DP  RH WIND       PRES   REMARKS
ASPEN          CLOUDY    57  43  59 CALM      30.43R
BUENA VISTA    CLOUDY    54  51  89 SE3       30.51S
COPPER MTN     PTSUNNY   50  39  66 S20G26    30.69R
BERTHOUD PASS  PTSUNNY   41  39  93 SW7       30.75R
COTTONWOOD PAS FOG       50  48  93 SE5       30.61R VSB<1/4
GUNNISON       CLOUDY    52  46  82 N3        30.53R
KREMMLING      MOSUNNY   54  39  58 CALM      30.44R
LEADVILLE      CLOUDY    48  45  89 CALM      30.58S
MONARCH PASS   FOG       41  41 100 E6        30.82S VSB<1/4
SALIDA         CLOUDY    55  54  94 W3        30.56S
SUNLIGHT       CLOUDY    48  43  81 S3        30.64R
WILKERSON PASS NOT AVBL
$$

COZ069>075-211600-
...SAN LUIS VALLEY/SANGRE DE CRISTO MOUNTAINS...

CITY           SKY/WX    TMP DP  RH WIND       PRES   REMARKS
ALAMOSA        MOSUNNY   61  46  57 CALM      30.46R
LA VETA PASS   LGT RAIN  46  45  93 NE7       30.63S VSB<1/4
SAGUACHE       NOT AVBL
$$

COZ035-036-038>040-211600-
...NORTHERN COLORADO FRONT RANGE...

CITY           SKY/WX    TMP DP  RH WIND       PRES   REMARKS
DENVER INTL AP PTSUNNY   58  45  62 N6        30.40R
DMNS CITY PARK   N/A     59  45  58 N1        30.39F
AURORA         PTSUNNY   59  45  59 W6        30.41S
FRONT RANGE AP NOT AVBL
ERIE MUNI ARPT NOT AVBL
BOULDER MUN AP CLOUDY    59  43  55 NW6       30.39S
CENTENNIAL     MOSUNNY   56  45  66 W3        30.41S
BROOMFIELD     NOT AVBL
FORT COLLINS   PTSUNNY   59  41  51 E9        30.41S
LONGMONT       MOSUNNY   65  45  48 NE5       30.41R
$$

COZ041-046-047-076>085-087-088-211600-
...PIKES PEAK/PALMER DIVIDE AND SOUTHERN FOOTHILLS...

CITY           SKY/WX    TMP DP  RH WIND       PRES   REMARKS
COLO. SPRINGS  PTSUNNY   61  52  72 SE15      30.45S
A. F. ACADEMY  PTSUNNY   60  51  74 S15       30.45R
ELLICOTT       NOT AVBL
FALCON         PTSUNNY   60  51  72 SE10      30.49R
FORT CARSON    CLOUDY    61  53  76 SE9       30.43R
LIMON          CLOUDY    58  39  49 SE12      30.44R
MONUMENT HILL  PTSUNNY   59  50  72 S13       30.46S
TRINIDAD       MOSUNNY   63  54  72 CALM      30.41F
$$

COZ042>045-048>051-090-091-211600-
...NORTHEAST COLORADO...

CITY           SKY/WX    TMP DP  RH WIND       PRES   REMARKS
GREELEY ARPT   PTSUNNY   61  39  44 E8        30.40S
AKRON          CLOUDY    62  40  44 SE16      30.40S
BURLINGTON     CLOUDY    60  43  53 CALM      30.40R
WRAY           CLOUDY    60  43  52 CALM      30.39R
STERLING       CLOUDY    63  46  55 SE3       30.38F
HOLYOKE        MOSUNNY   61  45  55 CALM      30.39S
FORT MORGAN    CLOUDY    58  44  59 E10       30.40S
$$

COZ086-089-092>099-211600-
...SOUTHEAST COLORADO...

CITY           SKY/WX    TMP DP  RH WIND       PRES   REMARKS
PUEBLO         PTSUNNY   62  56  80 E8        30.38S
LA JUNTA       CLOUDY    64  43  46 E12       30.38R
LAMAR          CLOUDY    62  44  51 NE5       30.36R
SPRINGFIELD      N/A     63  43  48 E14       30.36S
$$


USA.gov is the U.S. government's official web portal to all federal, state and local government web resources and services.